Regional Weather Roundup
Issued by NWS Charleston, SC

Current Version | Previous Version | Graphics & Text | Print | Product List | Glossary On
Versions: 1 2 3 4 5 6 7 8 9 10 11 12 13 14 15 16 17 18 19 20 21 22 23 24 25 26 27 28 29 30 31 32 33 34 35 36 37 38 39 40 41 42 43 44 45 46 47 48 49 50
000
ASUS42 KCHS 280112
RWRCHS

REGIONAL WEATHER ROUNDUP
NATIONAL WEATHER SERVICE CHARLESTON SC
900 PM EDT MON JUL 27 2015

NOTE: "FAIR" INDICATES FEW OR NO CLOUDS BELOW 12,000 FEET WITH NO
SIGNIFICANT WEATHER AND/OR OBSTRUCTIONS TO VISIBILITY.

NOT ALL STATIONS ARE QUALITY CONTROLLED BY THE NATIONAL
WEATHER SERVICE. USE DATA WITH CAUTION...ESPECIALLY
DEWPOINT OBSERVATIONS.

SCZ027-030-031-034>040-042>050-280200-
...SOUTHEAST SOUTH CAROLINA...

CITY           SKY/WX    TMP DP  RH WIND       PRES   REMARKS
N CHARLESTON   MOCLDY    82  75  79 E9        29.95R
WATERFRONT PRK   N/A     83  79  87 E10       29.92S HX  94
MOUNT PLEASANT MOCLDY    82  79  89 CALM      29.95S HX  93
JOHNS ISLAND   FAIR      82  79  89 E7        29.95S HX  93
PINOPOLIS      NOT AVBL
MONCKS CORNER  NOT AVBL
SUMMERVILLE    FAIR      82  75  78 CALM      29.95F
BEAUFORT MCAS  PTCLDY    83  77  82 CALM      29.94S HX  92
BEAUFORT ARPT  FAIR      81  77  89 CALM      29.94S
HILTON HEAD IS PTCLDY    82  79  89 CALM      29.96R HX  93
WALTERBORO     CLEAR     82  73  74 E6        29.95S
ALLENDALE      FAIR      86  75  70 SE8       29.93R HX  95

...SOUTHERN MIDLANDS AND PEE DEE...

CITY           SKY/WX    TMP DP  RH WIND       PRES   REMARKS
GEORGETOWN     NOT AVBL
KINGSTREE      NOT AVBL
ORANGEBURG     MOCLDY    85  72  65 SE10      29.94R HX  91
BARNWELL       FAIR      88  68  51 SE12      29.94R HX  91
AIKEN          FAIR      86  61  42 E3        29.98R
MANNING        FAIR      82  70  65 E5        29.95S
COLUMBIA       MOCLDY    91  66  43 SE3       29.93R HX  93
SUMTER         PTCLDY    86  73  63 SE10      29.94R HX  93
FLORENCE       PTCLDY    84  72  67 SE6       29.96R
MYRTLE BEACH   PTCLDY    82  72  69 SE7       29.99R
N MYRTLE BEACH PTCLDY    83  73  72 SE8       29.97S

$$

GAZ063-065-086>088-099>101-113>116-118-119-134>141-150-280200-
...SOUTHEAST GEORGIA...

CITY           SKY/WX    TMP DP  RH WIND       PRES   REMARKS
SAVANNAH ARPT  PTCLDY    82  76  81 E7        29.94R
HUNTER AAF     CLEAR     81  79  92 E2        29.92R HX  91
FORT STEWART   CLEAR     82  75  80 E3        29.92R
STATESBORO     CLEAR     84  78  83 SE6       29.93S HX  95
SYLVANIA       PTCLDY    85  78  78 SE3       29.94S HX  97
CLAXTON        FAIR      82  77  83 CALM      29.93S HX  91

...CSRA...CENTRAL AND FAR SOUTHEAST GEORGIA...

CITY           SKY/WX    TMP DP  RH WIND       PRES   REMARKS
THOMSON        MOCLDY    88  73  60 CALM      29.97S HX  94
AUGUSTA-BUSH   MOCLDY    84  68  58 SE5       29.91R
AUGUSTA-DANIEL MOCLDY    91  64  40 SE6       29.94R HX  92
SWAINSBORO     FAIR      86  73  66 CALM      29.94S HX  93
VIDALIA        CLEAR     84  73  70 SE6       29.94R HX  91
EASTMAN        FAIR      82  73  76 CALM      29.95S
HAZLEHURST     FAIR      85  77  77 S3        29.92S HX  96
ALMA           PTCLDY    82  77  84 SE3       29.93S HX  90
WAYCROSS       PTCLDY    83  81  91 CALM      29.94S HX  97
JESUP          FAIR      84  77  79 CALM      29.94R HX  94
BAXLEY         FAIR      84  77  79 CALM      29.93S HX  94
BRUNSWICK      PTCLDY    79  77  94 CALM      29.95R
SAINT SIMONS   PTCLDY    82  77  84 SE5       29.93R HX  90

$$

SCZ027-028-034-036>038-045-046-048>050-GAZ119-141-280200-
...LAKE AND SUPPLEMENTAL COASTAL OBSERVATIONS...

STATION/POSITION TIME  TEMP    WIND        PRES    WAVE   SWELL
                       AIR SEA DIR/SP/G            HT/PER HT/PER/DIR
                 (UTC) (F)     (DEG/KT/KT) (MB)    (FT/S) (FT/S/D)
UPR LAKE MARION  NOT AVBL
WINYAH BAY       2345   83      90/ 10     1014.0
LAKE MURRAY      0000   91      90/  7/  8 1012.5R
ACE BASIN NERRS  NOT AVBL
FORT PULASKI     0000   83 85  100/  8/ 10 1014.1F
SAPELO ISLAND    0000   83      70/  5     1013.0S

$$

ANZ835-935-AMZ111-154-330-350-352-354-370-450-454-472-280200-
...C-MAN AND BUOY OBSERVATIONS...

STATION/POSITION TIME  TEMP    WIND        PRES    WAVE   SWELL
                       AIR SEA DIR/SP/G            HT/PER HT/PER/DIR
                 (UTC) (F)     (DEG/KT/KT) (MB)    (FT/S) (FT/S/D)
BUOY 41004       0050   83 84   80/ 10/ 14 1013.3R   3/ 6   3/ 6
BUOY 41008       0050   82 82   80/  4/  6 1013.7R   2/ 6   2/120/ 6
FOLLY BEACH CMAN 0100   82      90/ 12/ 13 1014.3S
CAPERS NEARSHORE 0008   82      90/  8/ 10 1014.2R
FRIPP NEARSHORE  0000   83     110/ 10/ 10 1013.3R


STATION/POSITION TIME  TEMP    WIND        PRES    WAVE   SWELL
                       AIR SEA DIR/SP/G            HT/PER HT/PER/DIR
                 (UTC) (F)     (DEG/KT/KT) (MB)    (FT/S) (FT/S/D)
5E ST. MARYS GA  0021      81                N/A     2/ 5
FRYING PAN BUOY  0050   83 84  130/ 14/ 17 1014.7F   4/ 5   2/120/11
BUOY 41025       NOT AVBL
CAPE LOOKOUT NC  0000   81     130/ 10/ 11 1015.3R
BUOY 41002       0050   81 82  260/ 16/ 21 1015.6S   4/ 6   2/120/11
BUOY 41010       0020   83 84  210/ 12/ 14 1015.4R
ST AUGUSTINE FL  0100   80 81  210/  4/  6 1014.1R


$$


USA.gov is the U.S. government's official web portal to all federal, state and local government web resources and services.